GW3899 Weather Reports


time (UTC)temp
C
wind
direction
speed
KPH
gust
KPH
rain 1hr
cm
rain 24hr
cm
rain mn
cm
humidity
%
barometer
mb
20260906155712 31 160 1.6 1.6 0.00 0.00 0.00 1 1017.8
20260906155207 31 157 0.0 1.6 0.00 0.00 0.00 1 1017.8
20260906154703 31 135 1.6 1.6 0.00 0.00 0.00 1 1017.6
20260906154202 31 57 4.8 4.8 0.00 0.00 0.00 1 1017.6
20260906153701 30 160 3.2 4.8 0.00 0.00 0.00 1 1017.7
20260906153155 31 89 4.8 8.0 0.00 0.00 0.00 1 1017.5
20260906152651 30 151 3.2 3.2 0.00 0.00 0.00 1 1017.4
20260906152145 30 142 1.6 1.6 0.00 0.00 0.00 1 1017.4
20260906151639 30 90 4.8 8.0 0.00 0.00 0.00 1 1017.5
20260906151136 30 162 4.8 4.8 0.00 0.00 0.00 1 1017.6
20260906150630 30 95 1.6 1.6 0.00 0.00 0.00 1 1017.3
20260906150126 30 125 1.6 3.2 0.00 0.00 0.00 1 1017.5
20260906145624 30 156 1.6 1.6 0.00 0.00 0.00 1 1017.6
20260906145119 30 133 4.8 4.8 0.00 0.00 0.00 1 1017.4
20260906144614 30 111 3.2 4.8 0.00 0.00 0.00 1 1017.4
20260906144109 29 131 1.6 1.6 0.00 0.00 0.00 1 1017.1
20260906143609 29 131 1.6 1.6 0.00 0.00 0.00 1 1017.5
20260906143106 28 143 1.6 1.6 0.00 0.00 0.00 1 1017.2
20260906142605 28 115 3.2 4.8 0.00 0.00 0.00 1 1017.3
20260906142106 28 142 0.0 0.0 0.00 0.00 0.00 1 1017.5
20260906141605 28 139 1.6 1.6 0.00 0.00 0.00 1 1017.4
20260906141101 28 130 3.2 4.8 0.00 0.00 0.00 1 1017.3
20260906140559 28 136 1.6 1.6 0.00 0.00 0.00 1 1017.3
20260906140054 28 140 0.0 0.0 0.00 0.00 0.00 1 1017.1
20260906135551 27 123 3.2 3.2 0.00 0.00 0.00 1 1017.3
20260906135047 27 149 1.6 1.6 0.00 0.00 0.00 1 1017.3
20260906134542 27 142 1.6 1.6 0.00 0.00 0.00 1 1017.2
20260906134037 27 140 0.0 1.6 0.00 0.00 0.00 1 1017.2
20260906133533 27 132 1.6 1.6 0.00 0.00 0.00 1 1017.1
20260906133028 27 146 1.6 1.6 0.00 0.00 0.00 1 1017.1
20260906132523 26 113 1.6 1.6 0.00 0.00 0.00 1 1017.0
20260906132019 26 118 3.2 4.8 0.00 0.00 0.00 1 1016.8
20260906131514 26 155 1.6 1.6 0.00 0.00 0.00 1 1017.0
20260906131009 25 101 3.2 3.2 0.00 0.00 0.00 1 1016.9
20260906130504 25 151 1.6 3.2 0.00 0.00 0.00 1 1017.1
20260906130004 25 135 3.2 3.2 0.00 0.00 0.00 1 1017.0
20260906125501 25 137 0.0 1.6 0.00 0.00 0.00 1 1017.0
20260906125000 25 164 3.2 3.2 0.00 0.00 0.00 1 1017.1
20260906124456 25 140 0.0 0.0 0.00 0.00 0.00 1 1016.8
20260906123951 24 139 0.0 0.0 0.00 0.00 0.00 1 1017.1
20260906123450 24 134 0.0 0.0 0.00 0.00 0.00 1 1016.8
20260906122945 24 129 0.0 0.0 0.00 0.00 0.00 1 1016.7
20260906122445 24 146 0.0 0.0 0.00 0.00 0.00 1 1016.8
20260906121942 24 141 0.0 0.0 0.00 0.00 0.00 1 1016.5
20260906121437 24 140 0.0 0.0 0.00 0.00 0.00 1 1016.8
20260906120934 24 141 0.0 0.0 0.00 0.00 0.00 1 1016.8
20260906120429 24 143 0.0 0.0 0.00 0.00 0.00 1 1016.5
20260906115926 24 142 0.0 0.0 0.00 0.00 0.00 1 1016.7
20260906115421 24 126 3.2 3.2 0.00 0.00 0.00 1 1016.6
20260906114920 24 138 0.0 0.0 0.00 0.00 0.00 1 1016.2
20260906114415 24 116 0.0 1.6 0.00 0.00 0.00 1 1016.3
20260906113911 25 146 1.6 3.2 0.00 0.00 0.00 1 1016.3
20260906113409 25 145 0.0 0.0 0.00 0.00 0.00 1 1016.2
20260906112905 25 136 0.0 0.0 0.00 0.00 0.00 1 1016.4
20260906112355 25 116 0.0 0.0 0.00 0.00 0.00 1 1016.2
20260906111849 25 128 0.0 1.6 0.00 0.00 0.00 1 1016.2
20260906111344 25 139 0.0 1.6 0.00 0.00 0.00 1 1015.9
20260906110839 25 137 0.0 0.0 0.00 0.00 0.00 1 1016.3
20260906110335 25 139 0.0 0.0 0.00 0.00 0.00 1 1016.2
20260906105833 25 143 0.0 0.0 0.00 0.00 0.00 1 1016.2
20260906105329 25 140 0.0 0.0 0.00 0.00 0.00 1 1015.9
20260906104825 25 144 0.0 0.0 0.00 0.00 0.00 1 1015.8
20260906104323 25 143 0.0 0.0 0.00 0.00 0.00 1 1016.1
20260906103816 25 142 1.6 1.6 0.00 0.00 0.00 1 1015.9
20260906103315 25 143 0.0 1.6 0.00 0.00 0.00 1 1016.2
20260906102811 25 146 0.0 0.0 0.00 0.00 0.00 1 1015.9
20260906102310 25 142 0.0 0.0 0.00 0.00 0.00 1 1015.8
20260906101805 25 136 0.0 0.0 0.00 0.00 0.00 1 1016.1
20260906101300 25 123 0.0 0.0 0.00 0.00 0.00 1 1015.4
20260906100756 25 138 0.0 0.0 0.00 0.00 0.00 1 1015.7
20260906100255 25 140 0.0 0.0 0.00 0.00 0.00 1 1015.6
20260906095750 25 142 0.0 0.0 0.00 0.00 0.00 1 1015.9
20260906095246 25 144 0.0 0.0 0.00 0.00 0.00 1 1015.6
20260906094745 26 145 0.0 0.0 0.00 0.00 0.00 1 1015.6
20260906094240 26 144 0.0 0.0 0.00 0.00 0.00 1 1015.6
20260906093736 26 143 0.0 0.0 0.00 0.00 0.00 1 1015.5
20260906093231 26 142 0.0 0.0 0.00 0.00 0.00 1 1015.6
20260906092726 26 147 1.6 1.6 0.00 0.00 0.00 1 1015.3
20260906092220 26 144 0.0 0.0 0.00 0.00 0.00 1 1015.6
20260906091717 26 138 0.0 1.6 0.00 0.00 0.00 1 1015.3
20260906091213 26 137 0.0 1.6 0.00 0.00 0.00 1 1015.4
20260906090709 26 143 1.6 1.6 0.00 0.00 0.00 1 1015.3
20260906090208 26 141 0.0 0.0 0.00 0.00 0.00 1 1015.0
20260906085707 26 139 0.0 0.0 0.00 0.00 0.00 1 1015.1
20260906085206 26 144 0.0 0.0 0.00 0.00 0.00 1 1014.9
20260906084701 26 138 0.0 0.0 0.00 0.00 0.00 1 1015.0
20260906084200 26 140 1.6 3.2 0.00 0.00 0.00 1 1015.0
20260906083655 26 140 1.6 3.2 0.00 0.00 0.00 1 1015.1
20260906083151 26 124 1.6 1.6 0.00 0.00 0.00 1 1015.0
20260906082646 26 147 0.0 0.0 0.00 0.00 0.00 1 1014.8
20260906082141 26 141 0.0 0.0 0.00 0.00 0.00 1 1014.9
20260906081637 27 140 0.0 0.0 0.00 0.00 0.00 1 1014.9
20260906081132 27 134 0.0 1.6 0.00 0.00 0.00 1 1014.8
20260906080629 27 139 0.0 0.0 0.00 0.00 0.00 1 1015.1
20260906080125 27 123 0.0 1.6 0.00 0.00 0.00 1 1014.9
20260906075624 27 119 3.2 3.2 0.00 0.00 0.00 1 1015.0
20260906075119 27 142 0.0 0.0 0.00 0.00 0.00 1 1015.0
20260906074614 27 143 0.0 1.6 0.00 0.00 0.00 1 1015.0
20260906074113 27 133 0.0 0.0 0.00 0.00 0.00 1 1014.9
20260906073608 27 114 1.6 1.6 0.00 0.00 0.00 1 1015.0
20260906073103 27 136 0.0 0.0 0.00 0.00 0.00 1 1015.0
20260906072558 27 143 1.6 1.6 0.00 0.00 0.00 1 1015.1
20260906072054 27 147 0.0 1.6 0.00 0.00 0.00 1 1015.1
20260906071551 27 140 0.0 0.0 0.00 0.00 0.00 1 1015.0
20260906071045 27 141 0.0 0.0 0.00 0.00 0.00 1 1014.9
20260906070542 26 124 0.0 0.0 0.00 0.00 0.00 1 1015.1
20260906070037 27 146 0.0 0.0 0.00 0.00 0.00 1 1015.2
20260906065537 27 139 0.0 0.0 0.00 0.00 0.00 1 1015.1
20260906065032 26 124 0.0 0.0 0.00 0.00 0.00 1 1015.1
20260906064528 26 142 0.0 0.0 0.00 0.00 0.00 1 1015.2
20260906064023 27 146 0.0 0.0 0.00 0.00 0.00 1 1015.5
20260906063518 27 148 0.0 0.0 0.00 0.00 0.00 1 1015.4
20260906063014 27 143 0.0 0.0 0.00 0.00 0.00 1 1015.3
20260906062509 27 138 0.0 0.0 0.00 0.00 0.00 1 1015.6
20260906062003 27 142 0.0 0.0 0.00 0.00 0.00 1 1015.2
20260906061459 27 142 0.0 0.0 0.00 0.00 0.00 1 1015.5
20260906060953 27 147 0.0 0.0 0.00 0.00 0.00 1 1015.4
20260906060450 27 137 0.0 0.0 0.00 0.00 0.00 1 1015.5
20260906055946 27 145 0.0 0.0 0.00 0.00 0.00 1 1015.4
20260906055442 27 142 0.0 0.0 0.00 0.00 0.00 1 1015.5
20260906054937 27 138 0.0 0.0 0.00 0.00 0.00 1 1015.3
20260906054432 27 144 0.0 0.0 0.00 0.00 0.00 1 1015.4
20260906053928 27 134 0.0 0.0 0.00 0.00 0.00 1 1015.4
20260906053424 27 144 0.0 0.0 0.00 0.00 0.00 1 1015.4
20260906052919 27 134 0.0 0.0 0.00 0.00 0.00 1 1015.2
20260906052415 27 139 0.0 0.0 0.00 0.00 0.00 1 1015.4
20260906051912 27 136 0.0 1.6 0.00 0.00 0.00 1 1015.5
20260906051412 27 140 0.0 0.0 0.00 0.00 0.00 1 1015.4
20260906050908 27 144 0.0 0.0 0.00 0.00 0.00 1 1015.5
20260906050403 27 145 0.0 1.6 0.00 0.00 0.00 1 1015.3
20260906045902 27 150 0.0 0.0 0.00 0.00 0.00 1 1015.4
20260906045400 27 141 0.0 0.0 0.00 0.00 0.00 1 1015.3
20260906044857 27 141 0.0 0.0 0.00 0.00 0.00 1 1015.6
20260906044357 27 134 0.0 0.0 0.00 0.00 0.00 1 1015.2
20260906043853 27 137 0.0 0.0 0.00 0.00 0.00 1 1015.7
20260906043349 27 143 0.0 0.0 0.00 0.00 0.00 1 1015.6
20260906042844 27 140 0.0 0.0 0.00 0.00 0.00 1 1015.5
20260906042342 27 145 0.0 0.0 0.00 0.00 0.00 1 1015.7
20260906041838 27 143 0.0 0.0 0.00 0.00 0.00 1 1015.6
20260906041334 28 151 0.0 1.6 0.00 0.00 0.00 1 1015.5
20260906040834 28 145 0.0 0.0 0.00 0.00 0.00 1 1015.7
20260906040329 28 177 1.6 1.6 0.00 0.00 0.00 1 1015.5
20260906035824 28 155 1.6 1.6 0.00 0.00 0.00 1 1015.4
20260906035319 28 146 0.0 0.0 0.00 0.00 0.00 1 1015.2
20260906034815 28 143 0.0 0.0 0.00 0.00 0.00 1 1015.2
20260906034314 28 141 0.0 0.0 0.00 0.00 0.00 1 1015.2
20260906033810 28 142 0.0 0.0 0.00 0.00 0.00 1 1015.2
20260906033309 28 144 0.0 0.0 0.00 0.00 0.00 1 1015.0
20260906032806 28 144 0.0 0.0 0.00 0.00 0.00 1 1015.0
20260906032301 28 143 0.0 0.0 0.00 0.00 0.00 1 1015.2
20260906031757 28 146 0.0 0.0 0.00 0.00 0.00 1 1015.0
20260906031253 28 144 0.0 0.0 0.00 0.00 0.00 1 1015.0
20260906030752 28 145 0.0 0.0 0.00 0.00 0.00 1 1015.2
20260906030247 28 147 0.0 0.0 0.00 0.00 0.00 1 1014.9
20260906025742 28 148 0.0 0.0 0.00 0.00 0.00 1 1014.9
20260906025241 28 143 0.0 0.0 0.00 0.00 0.00 1 1014.8
20260906024740 28 144 0.0 0.0 0.00 0.00 0.00 1 1014.8
20260906024239 28 147 0.0 0.0 0.00 0.00 0.00 1 1014.7
20260906023735 28 139 0.0 0.0 0.00 0.00 0.00 1 1014.7
20260906023230 28 143 0.0 0.0 0.00 0.00 0.00 1 1014.8
20260906022726 28 141 0.0 0.0 0.00 0.00 0.00 1 1014.6
20260906022221 29 141 0.0 0.0 0.00 0.00 0.00 1 1014.3
20260906021717 29 144 0.0 0.0 0.00 0.00 0.00 1 1014.4
20260906021215 30 144 0.0 0.0 0.00 0.00 0.00 1 1014.2
20260906020711 30 145 0.0 0.0 0.00 0.00 0.00 1 1014.2
20260906020205 30 141 0.0 0.0 0.00 0.00 0.00 1 1014.0
20260906015700 30 144 0.0 0.0 0.00 0.00 0.00 1 1014.0
20260906015158 30 144 0.0 0.0 0.00 0.00 0.00 1 1013.9
20260906014653 30 144 0.0 0.0 0.00 0.00 0.00 1 1013.9
20260906014149 30 142 0.0 0.0 0.00 0.00 0.00 1 1014.1
20260906013645 30 147 0.0 0.0 0.00 0.00 0.00 1 1013.9
20260906013140 30 143 0.0 0.0 0.00 0.00 0.00 1 1013.7
20260906012639 30 139 0.0 0.0 0.00 0.00 0.00 1 1014.0
20260906012134 30 145 0.0 0.0 0.00 0.00 0.00 1 1013.7
20260906011630 30 129 0.0 0.0 0.00 0.00 0.00 1 1013.7
20260906011124 30 144 0.0 0.0 0.00 0.00 0.00 1 1013.7
20260906010619 31 121 1.6 3.2 0.00 0.00 0.00 1 1013.4
20260906010116 31 148 1.6 1.6 0.00 0.00 0.00 1 1013.4
20260906005609 31 129 0.0 0.0 0.00 0.00 0.00 1 1013.5
20260906005109 31 135 1.6 3.2 0.00 0.00 0.00 1 1013.5
20260906004608 31 85 0.0 0.0 0.00 0.00 0.00 1 1013.7
20260906004103 31 135 0.0 0.0 0.00 0.00 0.00 1 1013.7
20260906003559 32 137 0.0 0.0 0.00 0.00 0.00 1 1013.6
20260906003054 32 123 1.6 1.6 0.00 0.00 0.00 1 1013.5
20260906002549 32 137 1.6 1.6 0.00 0.00 0.00 1 1013.3
20260906002043 32 139 0.0 0.0 0.00 0.00 0.00 1 1013.4
20260906001539 33 134 0.0 0.0 0.00 0.00 0.00 1 1013.7
20260906001032 33 132 3.2 3.2 0.00 0.00 0.00 1 1013.6
20260906000529 33 141 0.0 0.0 0.00 0.00 0.00 1 1013.6
20260906000024 34 140 0.0 0.0 0.00 0.00 0.00 1 1013.7
20260905235517 34 140 0.0 0.0 0.00 0.00 0.00 1 1013.6
20260905235013 35 140 0.0 0.0 0.00 0.00 0.00 1 1013.6
20260905234508 35 134 0.0 0.0 0.00 0.00 0.00 1 1013.4
20260905234003 35 137 0.0 0.0 0.00 0.00 0.00 1 1013.3
20260905233458 35 129 1.6 1.6 0.00 0.00 0.00 1 1013.6
20260905232956 35 136 0.0 1.6 0.00 0.00 0.00 1 1013.6
20260905232453 35 144 0.0 0.0 0.00 0.00 0.00 1 1013.3
20260905231948 35 140 1.6 1.6 0.00 0.00 0.00 1 1013.4
20260905231438 35 123 3.2 3.2 0.00 0.00 0.00 1 1013.5
20260905230935 35 143 0.0 0.0 0.00 0.00 0.00 1 1013.5
20260905230433 36 120 4.8 4.8 0.00 0.00 0.00 1 1013.3
20260905225931 35 124 1.6 3.2 0.00 0.00 0.00 1 1013.5
20260905225427 36 98 3.2 4.8 0.00 0.00 0.00 1 1013.1
20260905224921 36 124 1.6 3.2 0.00 0.00 0.00 1 1013.4
20260905224417 36 133 3.2 3.2 0.00 0.00 0.00 1 1013.5
20260905223910 36 21 8.0 9.7 0.00 0.00 0.00 1 1013.4
20260905223409 36 132 1.6 3.2 0.00 0.00 0.00 1 1013.3
20260905222909 36 190 3.2 3.2 0.00 0.00 0.00 1 1013.4
20260905222408 36 39 6.4 8.0 0.00 0.00 0.00 1 1013.6
20260905221904 36 106 3.2 3.2 0.00 0.00 0.00 1 1013.6
20260905221400 36 138 1.6 1.6 0.00 0.00 0.00 1 1013.4
20260905220856 36 79 8.0 11.3 0.00 0.00 0.00 1 1013.3
20260905220352 36 335 6.4 8.0 0.00 0.00 0.00 1 1013.6
20260905215851 37 30 8.0 9.7 0.00 0.00 0.00 1 1013.4
20260905215347 37 28 8.0 9.7 0.00 0.00 0.00 1 1013.3
20260905214843 38 53 6.4 8.0 0.00 0.00 0.00 1 1013.3
20260905214338 37 158 3.2 3.2 0.00 0.00 0.00 1 1013.2
20260905213828 37 195 6.4 9.7 0.00 0.00 0.00 1 1013.2
20260905213324 37 301 6.4 8.0 0.00 0.00 0.00 1 1013.3
20260905212818 37 111 3.2 4.8 0.00 0.00 0.00 1 1013.4
20260905212318 37 23 8.0 9.7 0.00 0.00 0.00 1 1013.3
20260905211813 37 132 1.6 3.2 0.00 0.00 0.00 1 1013.5
20260905211307 37 45 4.8 8.0 0.00 0.00 0.00 1 1013.5
20260905210804 36 148 1.6 1.6 0.00 0.00 0.00 1 1013.6
20260905210303 36 31 6.4 8.0 0.00 0.00 0.00 1 1013.6
20260905205802 36 109 4.8 4.8 0.00 0.00 0.00 1 1013.7
20260905205257 35 58 4.8 4.8 0.00 0.00 0.00 1 1013.7
20260905204756 36 148 4.8 4.8 0.00 0.00 0.00 1 1013.8
20260905204253 37 115 6.4 8.0 0.00 0.00 0.00 1 1013.9
20260905203752 37 79 3.2 3.2 0.00 0.00 0.00 1 1014.1
20260905203247 37 344 8.0 11.3 0.00 0.00 0.00 1 1013.8
20260905202743 37 121 8.0 11.3 0.00 0.00 0.00 1 1013.9
20260905202238 37 193 3.2 3.2 0.00 0.00 0.00 1 1014.0
20260905201734 38 132 1.6 1.6 0.00 0.00 0.00 1 1014.1
20260905201229 38 126 0.0 1.6 0.00 0.00 0.00 1 1014.1
20260905200724 37 131 1.6 3.2 0.00 0.00 0.00 1 1014.4
20260905200220 35 128 1.6 1.6 0.00 0.00 0.00 1 1014.4
20260905195718 35 87 3.2 4.8 0.00 0.00 0.00 1 1014.4
20260905195218 36 151 4.8 4.8 0.00 0.00 0.00 1 1014.4
20260905194713 36 45 9.7 11.3 0.00 0.00 0.00 1 1014.3
20260905194208 36 93 4.8 4.8 0.00 0.00 0.00 1 1014.6
20260905193702 37 123 4.8 4.8 0.00 0.00 0.00 1 1014.6
20260905193157 38 153 1.6 1.6 0.00 0.00 0.00 1 1014.3
20260905192653 37 145 0.0 0.0 0.00 0.00 0.00 1 1014.5
20260905192149 36 139 3.2 3.2 0.00 0.00 0.00 1 1014.3
20260905191648 36 110 4.8 4.8 0.00 0.00 0.00 1 1014.4
20260905191146 37 131 3.2 3.2 0.00 0.00 0.00 1 1014.6
20260905190645 36 142 3.2 3.2 0.00 0.00 0.00 1 1014.8
20260905190144 37 9 6.4 9.7 0.00 0.00 0.00 1 1014.8
20260905185643 36 314 4.8 8.0 0.00 0.00 0.00 1 1014.7
20260905185138 36 108 6.4 9.7 0.00 0.00 0.00 1 1014.9
20260905184637 36 97 6.4 8.0 0.00 0.00 0.00 1 1014.9
20260905184137 37 145 1.6 1.6 0.00 0.00 0.00 1 1015.1
20260905183636 37 98 6.4 8.0 0.00 0.00 0.00 1 1014.9
20260905183131 36 158 3.2 3.2 0.00 0.00 0.00 1 1015.1
20260905182631 37 185 3.2 4.8 0.00 0.00 0.00 1 1015.1
20260905182130 37 150 4.8 4.8 0.00 0.00 0.00 1 1015.5
20260905181625 37 130 1.6 1.6 0.00 0.00 0.00 1 1015.5
20260905181124 36 145 1.6 3.2 0.00 0.00 0.00 1 1015.7
20260905180619 36 198 6.4 8.0 0.00 0.00 0.00 1 1015.6
20260905180115 36 175 1.6 3.2 0.00 0.00 0.00 1 1015.5
20260905175614 36 169 4.8 4.8 0.00 0.00 0.00 1 1015.8
20260905175109 36 192 6.4 8.0 0.00 0.00 0.00 1 1015.7
20260905174605 36 162 4.8 4.8 0.00 0.00 0.00 1 1015.8
20260905174100 36 197 6.4 9.7 0.00 0.00 0.00 1 1015.8
20260905173557 36 201 4.8 4.8 0.00 0.00 0.00 1 1016.1
20260905173052 36 189 8.0 9.7 0.00 0.00 0.00 1 1016.1
20260905172550 35 143 1.6 1.6 0.00 0.00 0.00 1 1016.2
20260905172045 35 157 4.8 4.8 0.00 0.00 0.00 1 1016.2
20260905171542 35 135 1.6 1.6 0.00 0.00 0.00 1 1016.1
20260905171038 35 211 3.2 4.8 0.00 0.00 0.00 1 1015.9
20260905170534 36 199 4.8 8.0 0.00 0.00 0.00 1 1015.9
20260905170029 36 165 3.2 4.8 0.00 0.00 0.00 1 1016.2
20260905165524 35 140 1.6 1.6 0.00 0.00 0.00 1 1016.2
20260905165019 35 320 8.0 9.7 0.00 0.00 0.00 1 1016.3
20260905164514 35 158 3.2 4.8 0.00 0.00 0.00 1 1016.3
20260905164009 34 157 1.6 1.6 0.00 0.00 0.00 1 1016.4
20260905163505 35 197 6.4 8.0 0.00 0.00 0.00 1 1016.4
20260905163001 34 174 1.6 3.2 0.00 0.00 0.00 1 1016.6
20260905162455 34 160 4.8 4.8 0.00 0.00 0.00 1 1016.5
20260905161945 33 183 4.8 4.8 0.00 0.00 0.00 1 1016.4
20260905161444 33 167 3.2 3.2 0.00 0.00 0.00 1 1016.5
20260905160942 33 165 3.2 3.2 0.00 0.00 0.00 1 1016.7
20260905160436 33 207 3.2 3.2 0.00 0.00 0.00 1 1016.6
20260905155936 33 174 1.6 3.2 0.00 0.00 0.00 1 1016.8